This demonstration page uses our WeatherBlox Daily Observations layout. Learn more.

Left ArrowRight Arrow

39.51506, -84.39828

Hourly Observations for November 22, 2021

Temp ( °F °C ) Dew Point ( °F °C ) Humidity (%) Winds ( mph kmh ) Pressure ( in mb ) Visibility ( mi km ) Precip ( " mm )
12:15 am 00:15 Partly Cloudy 44 6.5 39 4.1 85 85 NW 15 24 30.07 1018 10 16 0.00 0.00
12:35 am 00:35 Clear 42 5.5 35 1.6 76 76 WNW 12 19 30.07 1018 10 16 0.00 0.00
12:55 am 00:55 Clear 40 4.6 33 0.4 74 74 NW 12 19 30.08 1019 10 16 0.00 0.00
1:15 am 01:15 Clear 38 3.5 31 -0.6 75 75 NW 8 13 30.09 1019 10 16 0.00 0.00
1:35 am 01:35 Clear 37 2.9 29 -1.6 73 73 NNW 7 11 30.10 1019 10 16 0.00 0.00
1:55 am 01:55 Clear 37 2.5 28 -2.1 72 72 NW 7 11 30.10 1019 10 16 0.00 0.00
2:15 am 02:15 Clear 36 2.1 28 -2.3 73 73 NW 8 13 30.11 1020 10 16 0.00 0.00
2:35 am 02:35 Clear 35 1.7 27 -2.7 73 73 NW 7 11 30.11 1020 10 16 0.00 0.00
2:55 am 02:55 Clear 35 1.4 27 -2.7 74 74 NNW 7 11 30.13 1020 10 16 0.00 0.00
3:15 am 03:15 Clear 35 1.4 27 -2.8 74 74 NNW 8 13 30.13 1020 10 16 0.00 0.00
3:35 am 03:35 Clear 34 1.1 27 -2.9 75 75 NNW 5 7 30.14 1021 10 16 0.00 0.00
3:55 am 03:55 Clear 34 1.1 27 -3 74 74 NNW 6 9 30.15 1021 10 16 0.00 0.00
4:15 am 04:15 Clear 33 0.8 26 -3.4 74 74 NNW 6 9 30.15 1021 10 16 0.00 0.00
4:35 am 04:35 Clear 33 0.4 24 -4.4 71 71 N 5 7 30.16 1021 10 16 0.00 0.00
4:55 am 04:55 Clear 33 0.3 23 -5 68 68 Calm 30.16 1021 10 16 0.00 0.00
5:15 am 05:15 Clear 32 -0.1 22 -5.7 66 66 N 3 6 30.18 1022 10 16 0.00 0.00
5:35 am 05:35 Clear 31 -0.7 22 -5.7 69 69 Calm 30.18 1022 10 16 0.00 0.00
5:55 am 05:55 Clear 30 -1.3 23 -5.2 75 75 Calm 30.18 1022 10 16 0.00 0.00
6:15 am 06:15 Clear 29 -1.5 22 -5.5 74 74 Calm 30.19 1022 10 16 0.00 0.00
6:35 am 06:35 Clear 29 -1.4 23 -5.2 76 76 Calm 30.19 1022 10 16 0.01 0.25
6:55 am 06:55 Clear 28 -2 22 -5.6 77 77 Calm 30.19 1022 10 16 0.01 0.25
7:15 am 07:15 Clear 28 -2 21 -5.9 75 75 Calm 30.20 1023 10 16 0.00 0.00
7:35 am 07:35 Sunny 28 -2 23 -5.1 80 80 Calm 30.20 1023 10 16 0.00 0.00
7:55 am 07:55 Sunny 28 -2.4 22 -5.4 80 80 Calm 30.21 1023 10 16 0.00 0.00
8:15 am 08:15 Sunny 29 -1.7 23 -5 78 78 Calm 30.21 1023 10 16 0.00 0.00
8:35 am 08:35 Sunny 31 -0.7 20 -6.4 66 66 Calm 30.22 1023 10 16 0.00 0.00
8:55 am 08:55 Sunny 30 -1 21 -6.1 69 69 Calm 30.22 1023 10 16 0.00 0.00
9:15 am 09:15 Sunny 32 -0.2 21 -6.2 64 64 N 7 11 30.23 1024 10 16 0.00 0.00
9:35 am 09:35 Sunny 33 0.4 21 -6 63 63 NNW 5 7 30.22 1024 10 16 0.01 0.25
9:55 am 09:55 Sunny 34 1.1 21 -6.1 59 59 N 7 11 30.22 1023 10 16 0.01 0.25
10:15 am 10:15 Sunny 36 2.1 24 -4.7 61 61 NNW 10 17 30.22 1023 10 16 0.00 0.00
10:35 am 10:35 Sunny 36 2.2 22 -5.8 56 56 N 12 19 30.23 1024 10 16 0.00 0.00
10:55 am 10:55 Sunny 36 2.3 22 -5.3 58 58 N 9 15 30.23 1024 10 16 0.00 0.00
11:15 am 11:15 Sunny 37 2.6 22 -5.6 55 55 N 9 15 30.23 1024 10 16 0.00 0.00
11:35 am 11:35 Sunny 37 2.7 21 -6.1 53 53 NNW 12 19 30.23 1024 10 16 0.00 0.00
11:55 am 11:55 Sunny 38 3.4 22 -5.8 51 51 N 9 15 30.22 1023 10 16 0.00 0.00
12:15 pm 12:15 Sunny 38 3.5 22 -5.4 53 53 NNW 8 13 30.21 1023 10 16 0.00 0.00
12:35 pm 12:35 Sunny 39 3.7 21 -5.9 50 50 NNW 9 15 30.21 1023 10 16 0.00 0.00
12:55 pm 12:55 Sunny 40 4.4 21 -6.2 46 46 NNW 10 17 30.19 1022 10 16 0.00 0.00
1:15 pm 13:15 Sunny 40 4.2 19 -7.2 44 44 NW 13 20 30.19 1022 10 16 0.00 0.00
1:35 pm 13:35 Sunny 40 4.6 19 -7.3 42 42 NNW 9 15 30.19 1022 10 16 0.01 0.25
1:55 pm 13:55 Sunny 40 4.3 17 -8.6 39 39 WNW 12 19 30.18 1022 10 16 0.01 0.25
2:15 pm 14:15 Sunny 40 4.4 17 -8.3 40 40 N 10 17 30.17 1022 10 16 0.00 0.00
2:35 pm 14:35 Sunny 40 4.4 15 -9.7 35 35 NNW 13 20 30.17 1022 10 16 0.00 0.00
2:55 pm 14:55 Sunny 40 4.3 15 -9.4 37 37 NW 12 19 30.17 1022 10 16 0.00 0.00
3:15 pm 15:15 Sunny 40 4.2 15 -9.2 37 37 NW 13 20 30.17 1022 10 16 0.00 0.00
3:35 pm 15:35 Sunny 39 4 15 -9.2 38 38 NNW 13 20 30.18 1022 10 16 0.00 0.00
3:55 pm 15:55 Sunny 39 3.7 15 -9.7 37 37 NNW 13 20 30.20 1023 10 16 0.00 0.00
4:15 pm 16:15 Sunny 38 3.3 15 -9.6 39 39 NW 12 19 30.19 1022 10 16 0.00 0.00
4:35 pm 16:35 Sunny 37 2.9 16 -8.7 43 43 NW 10 17 30.19 1022 10 16 0.00 0.00
4:55 pm 16:55 Sunny 36 2.2 16 -9.1 43 43 WNW 10 17 30.20 1023 10 16 0.00 0.00
5:15 pm 17:15 Sunny 35 1.4 16 -9 46 46 NW 8 13 30.20 1023 10 16 0.00 0.00
5:35 pm 17:35 Clear 33 0.3 17 -8.5 52 52 NW 8 13 30.19 1022 10 16 0.00 0.00
5:55 pm 17:55 Clear 32 -0.1 17 -8.6 53 53 NW 7 11 30.21 1023 10 16 0.00 0.00
6:15 pm 18:15 Clear 31 -0.7 17 -8.4 56 56 NNW 7 11 30.22 1023 10 16 0.00 0.00
6:35 pm 18:35 Clear 31 -0.7 17 -8.4 56 56 NNW 3 6 30.23 1024 10 16 0.00 0.00
6:55 pm 18:55 Clear 29 -1.5 17 -8.3 60 60 NNW 6 9 30.23 1024 10 16 0.00 0.00
7:15 pm 19:15 Clear 29 -1.4 16 -8.7 58 58 Calm 30.23 1024 10 16 0.00 0.00
7:35 pm 19:35 Clear 29 -1.6 17 -8.5 60 60 NNW 5 7 30.23 1024 10 16 0.00 0.00
7:55 pm 19:55 Clear 29 -1.7 17 -8.4 61 61 Calm 30.24 1024 10 16 0.00 0.00
8:15 pm 20:15 Clear 29 -1.7 17 -8.4 61 61 Calm 30.24 1024 10 16 0.00 0.00
8:35 pm 20:35 Clear 29 -1.9 17 -8.3 62 62 Calm 30.25 1024 10 16 0.00 0.00
8:55 pm 20:55 Clear 28 -2.2 18 -8 65 65 Calm 30.25 1024 10 16 0.00 0.00
9:15 pm 21:15 Clear 28 -2.1 17 -8.1 64 64 Calm 30.25 1024 10 16 0.00 0.00
9:35 pm 21:35 Clear 27 -2.7 17 -8.3 66 66 Calm 30.25 1024 10 16 0.00 0.00
9:55 pm 21:55 Clear 26 -3.3 18 -7.7 72 72 Calm 30.26 1025 10 16 0.00 0.00
10:15 pm 22:15 Clear 26 -3.3 18 -7.7 72 72 Calm 30.26 1025 10 16 0.00 0.00
10:35 pm 22:35 Clear 26 -3.6 18 -7.6 74 74 Calm 30.28 1025 10 16 0.00 0.00
10:55 pm 22:55 Clear 25 -4 18 -7.7 76 76 Calm 30.27 1025 10 16 0.00 0.00
11:15 pm 23:15 Clear 22 -5.4 17 -8.4 80 80 Calm 30.27 1025 10 16 0.00 0.00
11:35 pm 23:35 Clear 24 -4.6 21 -6.1 89 89 Calm 30.27 1025 10 16 0.00 0.00
11:55 pm 23:55 Clear 22 -5.8 19 -7.2 90 90 Calm 30.28 1025 10 16 0.00 0.00

Powered by AerisWeather